• Join FlightAware (Why Join?)
  • Login
  • US Flag 
11:38AM EDT


 

Airport Tracker/Info


-or-


 

Live Flight TrackerFlight Track Log ✈ EJA922 ✈ 03-Jul-2013 ✈ KSDF - KTTN

Flight Track Log - Related Links

Times and Time Zones

All times are in EDT time to prevent confusion due to time zone crossing. See the EJA922 flight status page for this flight to view local times or setup timezone preferences in your user account.

Time Position Orientation Groundspeed Altitude Reporting Facility
EDT Latitude Longitude Course Direction KTS MPH feet Rate Location/Type
08:56AM 38.1064 -85.7000 73° East 197 227 4,900  Level Indianapolis Center
08:58AM 38.0383 -85.6694 161° South 245 282 9,400 3,420 Climbing Indianapolis Center
08:59AM 37.9644 -85.6081 147° Southeast 343 395 12,000 2,520 Climbing Indianapolis Center
09:00AM 37.9936 -85.4772 74° East 417 480 14,600 2,760 Climbing Indianapolis Center
09:01AM 38.0814 -85.3372 51° Northeast 421 484 17,700 2,460 Climbing Indianapolis Center
09:02AM 38.3778 -84.8936 73° East  Level Estimated
09:02AM 38.1489 -85.2169 54° Northeast 419 482 19,800  Level Indianapolis Center
09:03AM 38.2225 -85.0861 54° Northeast 427 491 21,900 1,500 Climbing Indianapolis Center
09:04AM 38.2953 -84.9547 55° Northeast 443 510 23,000 1,500 Climbing Indianapolis Center
09:05AM 38.3689 -84.8219 55° Northeast 454 522 25,000 1,920 Climbing Indianapolis Center
09:06AM 38.4422 -84.6897 55° Northeast 455 524 27,000 1,920 Climbing Indianapolis Center
09:07AM 38.5169 -84.5553 55° Northeast 459 528 29,000 1,920 Climbing Indianapolis Center
09:08AM 38.5906 -84.4186 55° Northeast 464 534 31,000 1,740 Climbing Indianapolis Center
09:09AM 38.6703 -84.2653 56° Northeast 463 533 32,600 1,200 Climbing Indianapolis Center
09:10AM 38.7333 -84.1064 63° Northeast 490 564 33,600 960 Climbing Indianapolis Center
09:11AM 38.8000 -83.9450 62° Northeast 508 585 34,600 960 Climbing Indianapolis Center
09:12AM 38.8683 -83.7753 63° Northeast 528 608 35,700 1,080 Climbing Indianapolis Center
09:13AM 38.9378 -83.6039 62° Northeast 537 618 36,900 1,140 Climbing Indianapolis Center
09:14AM 39.0075 -83.4306 63° Northeast 542 624 38,100 1,200 Climbing Indianapolis Center
09:15AM 39.0897 -83.2267 62° Northeast 547 629 39,500 1,140 Climbing Indianapolis Center
09:16AM 39.1550 -83.0611 63° Northeast 548 631 40,500 720 Climbing Indianapolis Center
09:17AM 39.2292 -82.8767 63° Northeast 548 631 41,000 240 Climbing Indianapolis Center
09:18AM 39.3003 -82.6958 63° Northeast 559 643 41,000  Level Indianapolis Center
09:19AM 39.3711 -82.5142 63° Northeast 563 648 41,000  Level Indianapolis Center
09:20AM 39.4439 -82.3306 63° Northeast 569 655 41,000  Level Indianapolis Center
09:21AM 39.5250 -82.1206 63° Northeast 566 651 41,000  Level Indianapolis Center
09:22AM 39.5947 -81.9378 64° Northeast 564 649 41,000  Level Indianapolis Center
09:23AM 39.6653 -81.7539 63° Northeast 565 650 41,000 -60 Level Indianapolis Center
09:24AM 39.7350 -81.5681 64° Northeast 559 643 40,900  Descending Indianapolis Center
09:25AM 39.8039 -81.3906 63° Northeast 558 642 41,000  Climbing Indianapolis Center
09:26AM 39.8689 -81.2056 65° Northeast 560 644 41,000  Level Indianapolis Center
09:27AM 39.9100 -81.0144 74° East 548 631 41,000  Level Indianapolis Center
09:28AM 39.9525 -80.7919 76° East 544 626 41,000  Level Indianapolis Center
09:29AM 39.9894 -80.5997 76° East 543 625 41,000  Level Indianapolis Center
09:31AM 40.0272 -80.4069 76° East 545 627 41,000  Level Indianapolis Center
09:32AM 40.0650 -80.2094 76° East 543 625 41,000  Level Indianapolis Center
09:33AM 40.1006 -80.0169 76° East 545 627 41,000  Level Indianapolis Center
09:34AM 40.1356 -79.8236 77° East 545 627 41,000 -60 Level Indianapolis Center
09:35AM 40.1669 -79.5617 81° East 539 620 40,900 -720 Descending Cleveland Center
09:36AM 40.1858 -79.3656 83° East 544 626 39,500 -1,680 Descending Cleveland Center
09:37AM 40.2022 -79.1750 84° East 539 620 37,600 -7,260 Descending Cleveland Center
09:38AM 40.2208 -78.9953 82° East 539 620 25,000 -2,040 Descending Cleveland Center
09:39AM 40.2386 -78.7989 83° East 539 620 33,600 3,240 Climbing Cleveland Center
09:40AM 40.2544 -78.6053 84° East 539 620 31,500 -2,100 Descending Cleveland Center
09:41AM 40.2736 -78.4061 83° East 539 620 29,400 -2,100 Descending Cleveland Center
09:43AM 40.3103 -77.9819 83° East 539 620 25,000 -1,440 Descending New York Center
09:44AM 40.3067 -77.7992 91° East 518 596 24,900 -960 Descending New York Center
09:45AM 40.2897 -77.6231 97° East 502 578 23,100 -1,920 Descending New York Center
09:46AM 40.2700 -77.4606 99° East 496 571 21,100 -2,040 Descending New York Center
09:47AM 40.2536 -77.3039 98° East 466 536 19,100 -1,620 Descending New York Center
09:48AM 40.2375 -77.1419 97° East 414 476 18,000 -600 Descending New York Center
09:49AM 40.2233 -77.0156 98° East 392 451 18,000  Level New York Center
09:50AM 40.2069 -76.8536 97° East 402 463 18,000 -720 Level New York Center
09:51AM 40.1933 -76.7111 97° East 408 470 16,600 -1,560 Descending New York Center
09:52AM 40.1786 -76.5875 99° East 390 449 15,000 -1,740 Descending New York Center
09:53AM 40.1606 -76.4422 99° East 373 429 13,100 -1,680 Descending New York Center
09:54AM 40.1483 -76.3081 97° East 373 429 11,700 -1,260 Descending New York Center
09:55AM 40.1328 -76.1928 100° East 351 404 10,600 -1,320 Descending New York Center
09:56AM 40.1225 -76.0997 98° East 303 349 9,200 -1,380 Descending New York Center
09:57AM 40.1106 -75.9900 98° East 278 320 7,900 -1,140 Descending New York Center
09:58AM 40.0983 -75.8914 99° East 278 320 7,000 -480 Descending New York Center
09:59AM 40.0839 -75.7872 100° East 278 320 7,000  Level New York Center
10:00AM 40.0983 -75.6961 78° East 278 320 7,000  Level New York Center
10:01AM 40.1339 -75.5872 67° East 286 329 7,000 -60 Level New York Center
10:02AM 40.1628 -75.4969 67° East 296 341 6,900 -720 Descending New York Center
10:03AM 40.1981 -75.3933 66° East 286 329 5,700 -1,440 Descending New York Center
10:04AM 40.2308 -75.3003 65° Northeast 280 322 4,100 -1,380 Descending New York Center
10:05AM 40.2592 -75.2097 68° East 274 315 3,000 -600 Descending New York Center
10:06AM 40.2875 -75.1272 66° East 255 293 3,000  Level New York Center
10:07AM 40.3150 -75.0581 62° Northeast 237 273 3,000  Level New York Center
10:08AM 40.3489 -74.9814 60° Northeast 237 273 3,000  Level New York Center
10:09AM 40.3831 -74.9044 60° Northeast 231 266 3,000  Level New York Center
10:10AM 40.4100 -74.8433 60° Northeast 220 253 3,000  Level New York Center
10:11AM 40.4417 -74.7742 59° Northeast 220 253 3,000  Level New York Center
10:12AM 40.4756 -74.6969 60° Northeast 225 259 3,000  Level New York Center
10:13AM 40.4461 -74.6436 126° Southeast 184 212 3,000  Level New York Center
10:14AM 40.3981 -74.6436 180° South 143 165 3,000 -120 Level New York Center
10:15AM 40.3631 -74.6961 229° Southwest 134 154 2,800 -720 Descending New York Center
10:17AM 40.3000 -74.7667 220° Southwest 128 147 800 -960 Descending Philadelphia TRACON